Location: Caltech
(34.1382°N, 118.1253°W)
Time: 20:51:38
(UTC-07:00)

CZ-4B DEB - Visible Passes

Search period start: 19 August 2017 00:00
Search period end: 29 August 2017 00:00
Orbit: 842 x 861 km, 99.0° (Epoch: 19 August)

Date Brightness Start Highest point End Pass type
(mag) Time Alt. Az. Time Alt. Az. Time Alt. Az.
19 Aug 4.4 04:49:01 10° NNE 04:54:33 75° ESE 05:00:01 10° S visible
20 Aug 4.7 04:37:36 10° NNE 04:43:04 58° ESE 04:48:26 10° S visible
21 Aug 5.2 04:26:16 10° NNE 04:31:32 44° E 04:36:44 10° S visible
22 Aug 5.6 04:15:01 10° NNE 04:20:00 34° E 04:24:55 10° SSE visible
23 Aug 6.0 04:03:51 10° NE 04:08:27 27° E 04:12:59 10° SSE visible
23 Aug 5.0 05:44:11 10° N 05:49:05 34° WNW 05:53:57 10° SW visible
24 Aug 6.4 03:52:50 10° NE 03:56:52 21° E 04:00:51 10° SE visible
24 Aug 4.6 05:32:30 10° N 05:37:41 43° WNW 05:42:49 10° SW visible
25 Aug 6.7 03:42:04 10° ENE 03:45:16 16° E 03:48:28 10° SE visible
25 Aug 4.3 05:20:53 10° N 05:26:15 55° WNW 05:31:34 10° SSW visible
26 Aug 6.9 03:31:49 10° ENE 03:33:40 12° E 03:35:30 10° ESE visible
26 Aug 4.2 05:09:19 10° N 05:14:48 72° WNW 05:20:14 10° SSW visible
27 Aug 4.2 04:57:48 10° NNE 05:03:20 89° ESE 05:08:48 10° SSW visible
28 Aug 4.4 04:46:21 10° NNE 04:51:50 70° ESE 04:57:17 10° S visible
